Tracking 29487 objects as of 10-Sep-2024
HD Live streaming from Space Station
objects crossing your sky now

FENGYUN 1C DEB

Track FENGYUN 1C DEB now!
10-day predictions


NORAD ID: 30828
Int'l Code: 1999-025AVN
Perigee: 513.8 km
Apogee: 879.7 km
Inclination: 98.4 °
Period: 98.6 minutes
Semi major axis: 7067 km
RCS: 0.0024 m2 (small)
Launch date: May 10, 1999
Source: People's Republic of China (PRC)
Launch site: Taiyaun Space Center, China (TSC)

Note: This is SATELLITE DEBRIS
Your satellite tracking list
Your tracking list is empty




NASA's NSSDC Master Catalog

Two Line Element Set (TLE):
1 30828U 99025AVN 24254.21910696  .00045860  00000-0  57578-2 0  9994
2 30828  98.3818 342.6638 0258821 186.1931 203.5447 14.61096666919893
Source of the keplerian elements: AFSPC